Location: Le Domaine
(47.0333°N, 76.5361°W)
Time: 13:24:49
(UTC-05:00)

A-11 Canister half - Visible Passes

Search period start: 21 November 2019 00:00
Search period end: 01 December 2019 00:00
Orbit: 1527 x 1682 km, 47.3° (Epoch: 21 November)

Date Brightness Start Highest point End Pass type
(mag) Time Alt. Az. Time Alt. Az. Time Alt. Az.
21 Nov 9.8 17:00:26 10° WNW 17:09:45 54° SSW 17:18:47 10° SE visible
21 Nov 11.1 19:07:06 10° W 19:13:02 19° SW 19:18:54 10° SSW visible
22 Nov 9.8 16:38:44 10° WNW 16:48:09 56° SSW 16:57:15 10° SE visible
22 Nov 11.1 18:45:14 10° W 18:51:30 20° SW 18:57:41 10° S visible
23 Nov 11.2 18:23:25 10° W 18:29:58 21° SW 18:36:25 10° S visible
24 Nov 11.2 18:01:36 10° W 18:08:26 22° SW 18:15:10 10° S visible
25 Nov 11.2 17:39:47 10° W 17:46:54 24° SW 17:53:52 10° S visible
26 Nov 11.2 17:18:01 10° W 17:25:21 25° SW 17:32:33 10° S visible
27 Nov 11.3 16:56:14 10° W 17:03:49 27° SW 17:11:12 10° S visible
